星链-31266 (STARLINK-31266 )

导读 | 豆包AI

STARLINK-31266是美国SpaceX星链互联网星座的一颗卫星,于2024年2月29日发射。星链计划旨在为全球提供覆盖偏远地区的高速卫星互联网服务,该卫星延续了星链星座低轨部署的设计,依托批量发射组网的模式,进一步扩充了星链星座的规模,助力提升星座全球覆盖密度与通信服务能力。

Basic Information
目录编号:
59087
目录名称:
STARLINK-31266
国际标识:
2024-041P
轨道中心:
EARTH
卫星名称:
星链-31266
卫星全名:
星链-31266 (STARLINK-31266 )
卫星状态:
在轨 (已飞行791 天)
发射日期:
2024-02-29 UTC
国别 :
美国 (US)
星等 :
--
Orbit Information
数据来源 国际轨道数据 AOE轨道数据
星历时间 2026-04-30T10:02:33+0800
21小时前
查看轨道信息
2026-04-28T17:00:00+0800
2天前
查看轨道信息
半长轴 6861.237km 6861.173km
偏心率 0.0001778 0.0000813
轨道倾角 43.001° 43.003°
近地点辐角 277.026° 272.858°
升交点赤经 20.290° 29.949°
平近点角 83.039° 31.988°
近地点 481.88km 482.478km
远地点 484.32km 483.594km
周期 94.268分钟 94.266分钟
每日圈数 15.275631 15.275847
Detailed Information
固有亮度:
5
最大亮度:
0.3
卫星平台:
Starlink v2.0 mini
覆盖范围:
全球
运营商:
太空探索技术公司
运营商所在国:
美国
制造商(研发单位):
太空探索技术公司
制造商所在国:
美国
使用方式:
暂无
Satellite Introduction
星链(Starlink)计划是由太空探索技术公司(SpaceX)提出的一个巨型低轨卫星互联网星座项目,计划在2019年至2024年间在太空搭建由约1.2万颗卫星组成的“星链”网络,其中1584颗将部署在地球上空550千米处的近地轨道,并从2020年开始工作。该卫星仍在工作。
2D Orbit Map
3D Orbit Map
Orbit Altitude Analysis Chart
Orbit Inclination Analysis Chart
Orbit Comprehensive Analysis Chart
View Comprehensive Chart